Home   Weather   Des Moines   Past weeks

Flag for USA Past Weather in Des Moines, Iowa, USA — Yesterday and Last 2 Weeks

Now
51 °F

Clear.


Feels Like: 47 °F
Forecast: 47 / 70 °F
Wind: 10 mph from Southwest

Location: Des Moines International Airport

Current Time: Feb 22, 2017 at 2:47:21 am

Latest Report: Feb 22, 2017 at 1:54 am


Visibility: 10 mi

Pressure: 29.76 "Hg

Humidity: 48%

Dew Point: 32 °F

Location of Des MoinesLocation

Past Weather in Des Moines — Graph

°F

Des Moines Temperature Yesterday

Maximum temperature yesterday: 68 °F (at 2:54 pm)
Minimum temperature yesterday: 37 °F (at 6:54 am)
Average temperature yesterday: 53 °F

High & Low Weather Summary for the Past Weeks

 TemperatureHumidityPressure
High74 °F (Feb 17, 1:54 pm)96% (Feb 21, 6:54 am)30.47 "Hg (Feb 21, 6:54 am)
Low9 °F (Feb 9, 3:54 am)21% (Feb 17, 2:54 pm)29.43 "Hg (Feb 7, 3:16 am)
Average41 °F64%29.93 "Hg
* Reported Feb 7 12:54 am — Feb 22 12:54 am, Des Moines, Weather by CustomWeather, © 2017

Note: Actual official high and low records may vary slightly from our data, if they occured in-between our weather recording intervals... More about our weather records

Advertising

Des Moines Weather History for the Previous 24 Hours

Scroll right to see more
 ConditionsComfort  
Time TempWeatherWind HumidityBarometerVisibility
12:54 am
Wed, Feb 22
50 °FClear.9 mph52%29.77 "Hg10 mi
11:54 pm
Tue, Feb 21
50 °FClear.12 mph52%29.78 "Hg10 mi
10:54 pm51 °FClear.9 mph50%29.80 "Hg10 mi
9:54 pm50 °FClear.10 mph54%29.81 "Hg10 mi
8:54 pm51 °FClear.7 mph50%29.83 "Hg10 mi
7:54 pm55 °FClear.7 mph44%29.84 "Hg10 mi
6:54 pm57 °FClear.8 mph41%29.84 "Hg10 mi
5:54 pm60 °FPassing clouds.10 mph38%29.85 "Hg10 mi
4:54 pm67 °FPassing clouds.12 mph29%29.85 "Hg10 mi
3:54 pm68 °FPassing clouds.13 mph26%29.86 "Hg10 mi
2:54 pm68 °FPassing clouds.12 mph27%29.88 "Hg10 mi
1:54 pm67 °FPassing clouds.13 mph33%29.90 "Hg10 mi
12:54 pm63 °FPassing clouds.6 mph45%29.93 "Hg10 mi
11:54 am60 °FPassing clouds.7 mph56%29.96 "Hg10 mi
10:54 am56 °FPassing clouds.8 mph67%29.98 "Hg10 mi
9:54 am52 °FPassing clouds.6 mph77%29.99 "Hg10 mi
8:54 am45 °FPassing clouds.6 mph90%29.98 "Hg10 mi
7:54 am41 °FLight fog.No wind96%29.98 "Hg5 mi
6:54 am37 °FLight fog.No wind96%29.97 "Hg7 mi
5:54 am39 °FClear.6 mph93%29.96 "Hg7 mi
4:54 am41 °FClear.5 mph93%29.96 "Hg8 mi
3:54 am44 °FClear.6 mph85%29.97 "Hg10 mi
2:54 am46 °FClear.8 mph86%29.95 "Hg10 mi
Weather by CustomWeather, © 2017

See weather overviewHow to use our weather pages